Home   Weather   Siegen   Past weeks

Flag for Germany Past Weather in Siegen, North Rhine-Westphalia, Germany — Yesterday and Last 2 Weeks

Now
41 °F

Scattered showers. Broken clouds.


Feels Like: 36 °F
Forecast: 28 / 52 °F
Wind: 7 mph from Northwest

Location: Hessen

Current Time: Apr 27, 2017 at 1:09:50 pm

Latest Report: Apr 27, 2017 at 12:20 pm


Visibility: N/A

Pressure: 29.95 "Hg

Humidity: 57%

Dew Point: 27 °F

Location of SiegenLocation

Past Weather in Siegen — Graph

°F

Siegen Temperature Yesterday

Maximum temperature yesterday: 45 °F (at 4:50 pm)
Minimum temperature yesterday: 32 °F (at 7:20 am)
Average temperature yesterday: 40 °F

High & Low Weather Summary for the Past Weeks

 TemperatureHumidityPressure
High54 °F (Apr 12, 1:20 pm)100% (Apr 13, 7:20 am)30.54 "Hg (Apr 13, 7:20 am)
Low28 °F (Apr 19, 7:50 am)37% (Apr 20, 4:20 pm)29.68 "Hg (Apr 25, 7:20 am)
Average41 °F72%30.08 "Hg
* Reported Apr 12 11:20 am — Apr 27 11:50 am, Siegen, Weather by CustomWeather, © 2017

Note: Actual official high and low records may vary slightly from our data, if they occured in-between our weather recording intervals... More about our weather records

Advertising

Siegen Weather History for the Previous 24 Hours

Scroll right to see more
 ConditionsComfort  
Time TempWeatherWind HumidityBarometerVisibility
11:50 am
Thu, Apr 27
43 °FScattered showers. Broken clouds.2 mph57%29.95 "HgN/A
11:20 am39 °FPartly sunny.8 mph65%29.95 "HgN/A
10:50 am39 °FScattered clouds.7 mph61%29.95 "HgN/A
10:20 am39 °FScattered clouds.7 mph65%29.95 "HgN/A
9:50 am37 °FScattered clouds.8 mph81%29.95 "HgN/A
9:20 am37 °FPassing clouds.8 mph81%29.95 "HgN/A
8:50 am36 °FPassing clouds.8 mph87%29.95 "HgN/A
8:20 am36 °FSunny.7 mph87%29.95 "Hg10 mi
7:50 am34 °FSunny.6 mph93%29.92 "Hg10 mi
8:50 pm
Wed, Apr 26
37 °FClear.3 mph65%29.86 "Hg10 mi
7:50 pm39 °FScattered clouds.5 mph61%29.86 "HgN/A
7:20 pm41 °FScattered clouds.8 mph57%29.86 "HgN/A
6:50 pm43 °FBroken clouds.6 mph49%29.83 "HgN/A
6:20 pm43 °FScattered showers. Partly sunny.7 mph53%29.86 "HgN/A
5:50 pm43 °FScattered showers. Partly sunny.6 mph57%29.86 "HgN/A
5:20 pm39 °FSnow flurries. Broken clouds.5 mph65%29.86 "HgN/A
4:50 pm45 °FBroken clouds.7 mph49%29.83 "HgN/A
4:20 pm43 °FBroken clouds.5 mph57%29.83 "HgN/A
3:50 pm43 °FBroken clouds.5 mph49%29.83 "HgN/A
3:20 pm43 °FScattered clouds.8 mph46%29.83 "HgN/A
2:50 pm43 °FScattered clouds.7 mph46%29.83 "HgN/A
2:20 pm43 °FScattered showers. Scattered clouds.6 mph39%29.83 "HgN/A
1:50 pm43 °FScattered clouds.6 mph42%29.83 "HgN/A
1:20 pm43 °FScattered showers. Scattered clouds.5 mph39%29.83 "HgN/A
Weather by CustomWeather, © 2017

See weather overviewHow to use our weather pages